Time,TemperatureF,DewpointF,PressureIn,WindDirection,WindDirectionDegrees,WindSpeedMPH,WindSpeedGustMPH,Humidity,HourlyPrecipIn,Conditions,Clouds,dailyrainin,SoftwareType,DateUTC
2013-09-13 00:00:00,64.7,61.1,29.59,NW,313,2.0,2.0,88,0.00,,,1.30,Wunderground v.1.13,2013-09-13 04:00:00,
2013-09-13 00:30:00,63.7,60.4,29.59,NW,306,2.0,2.0,89,0.00,,,1.30,Wunderground v.1.13,2013-09-13 04:30:00,
2013-09-13 01:00:00,62.9,59.6,29.60,WNW,290,1.0,1.0,89,0.00,,,0.00,Wunderground v.1.13,2013-09-13 05:00:00,
2013-09-13 01:30:00,62.4,59.1,29.60,NW,314,2.0,14.0,89,0.00,,,0.00,Wunderground v.1.13,2013-09-13 05:30:00,
2013-09-13 02:00:00,61.8,58.5,29.61,NW,306,3.0,3.0,89,0.00,,,0.00,Wunderground v.1.13,2013-09-13 06:00:00,
2013-09-13 02:30:00,61.2,57.9,29.62,NW,318,4.0,4.0,89,0.00,,,0.00,Wunderground v.1.13,2013-09-13 06:30:00,
2013-09-13 03:00:00,60.1,56.2,29.62,NNW,347,6.0,6.0,87,0.00,,,0.00,Wunderground v.1.13,2013-09-13 07:00:00,
2013-09-13 03:30:00,59.0,55.1,29.63,NW,311,5.0,14.0,87,0.00,,,0.00,Wunderground v.1.13,2013-09-13 07:30:00,
2013-09-13 04:00:00,57.5,54.3,29.64,NNE,26,6.0,14.0,89,0.00,,,0.00,Wunderground v.1.13,2013-09-13 08:00:00,
2013-09-13 04:30:00,56.7,54.4,29.65,North,360,6.0,6.0,92,0.00,,,0.00,Wunderground v.1.13,2013-09-13 08:30:00,
2013-09-13 05:00:00,56.9,52.1,29.65,North,360,6.0,18.0,84,0.00,,,0.00,Wunderground v.1.13,2013-09-13 09:00:00,
2013-09-13 05:30:00,56.7,51.9,29.66,North,355,5.0,14.0,84,0.00,,,0.00,Wunderground v.1.13,2013-09-13 09:30:00,
2013-09-13 06:00:00,56.5,51.1,29.66,North,355,4.0,14.0,82,0.00,,,0.00,Wunderground v.1.13,2013-09-13 10:00:00,
2013-09-13 06:30:00,55.7,50.9,29.68,NNW,336,3.0,3.0,84,0.00,,,0.00,Wunderground v.1.13,2013-09-13 10:30:00,
2013-09-13 07:00:00,55.1,50.7,29.69,North,351,3.0,14.0,85,0.00,,,0.00,Wunderground v.1.13,2013-09-13 11:00:00,
2013-09-13 07:30:00,54.8,50.1,29.70,NNW,328,4.0,4.0,84,0.00,,,0.00,Wunderground v.1.13,2013-09-13 11:30:00,
2013-09-13 08:00:00,54.5,49.1,29.72,NW,308,4.0,14.0,82,0.00,,,0.00,Wunderground v.1.13,2013-09-13 12:00:00,
2013-09-13 08:30:00,54.4,49.0,29.73,NW,320,5.0,14.0,82,0.00,,,0.00,Wunderground v.1.13,2013-09-13 12:30:00,
2013-09-13 09:00:00,54.4,48.7,29.73,North,355,5.0,5.0,81,0.00,,,0.00,Wunderground v.1.13,2013-09-13 13:00:00,
2013-09-13 09:30:00,54.7,48.0,29.73,NW,319,4.0,4.0,78,0.00,,,0.00,Wunderground v.1.13,2013-09-13 13:30:00,
2013-09-13 10:00:00,54.4,47.7,29.74,North,5,5.0,5.0,78,0.00,,,0.00,Wunderground v.1.13,2013-09-13 14:00:00,
2013-09-13 10:30:00,54.7,47.3,29.74,North,360,6.0,6.0,76,0.00,,,0.00,Wunderground v.1.13,2013-09-13 14:30:00,
2013-09-13 11:00:00,55.1,47.7,29.75,North,355,6.0,14.0,76,0.00,,,0.00,Wunderground v.1.13,2013-09-13 15:00:00,
2013-09-13 11:30:00,54.8,47.0,29.75,NW,315,6.0,14.0,75,0.00,,,0.00,Wunderground v.1.13,2013-09-13 15:30:00,
2013-09-13 12:00:00,54.8,47.4,29.76,North,355,5.0,5.0,76,0.00,,,0.00,Wunderground v.1.13,2013-09-13 16:00:00,
2013-09-13 12:30:00,54.8,47.4,29.76,NNW,336,5.0,14.0,76,0.00,,,0.00,Wunderground v.1.13,2013-09-13 16:30:00,
2013-09-13 13:00:00,53.8,48.4,29.76,NW,311,5.0,5.0,82,0.00,,,0.00,Wunderground v.1.13,2013-09-13 17:00:00,
2013-09-13 13:30:00,53.9,48.9,29.77,NNW,333,5.0,5.0,83,0.00,,,0.00,Wunderground v.1.13,2013-09-13 17:30:00,
2013-09-13 14:00:00,54.5,49.1,29.76,NNW,328,5.0,14.0,82,0.00,,,0.00,Wunderground v.1.13,2013-09-13 18:00:00,
2013-09-13 14:30:00,54.8,49.1,29.76,WNW,302,4.0,14.0,81,0.00,,,0.00,Wunderground v.1.13,2013-09-13 18:30:00,
2013-09-13 15:00:00,54.8,48.1,29.76,NNE,20,5.0,5.0,78,0.00,,,0.00,Wunderground v.1.13,2013-09-13 19:00:00,
2013-09-13 15:30:00,54.7,48.3,29.77,NNE,16,4.0,4.0,79,0.00,,,0.00,Wunderground v.1.13,2013-09-13 19:30:00,
2013-09-13 16:00:00,54.7,48.0,29.78,NW,309,4.0,14.0,78,0.00,,,0.00,Wunderground v.1.13,2013-09-13 20:00:00,
2013-09-13 16:30:00,54.2,48.8,29.79,NW,325,2.0,2.0,82,0.00,,,0.00,Wunderground v.1.13,2013-09-13 20:30:00,
2013-09-13 17:00:00,53.6,49.2,29.80,NNW,336,3.0,14.0,85,0.00,,,0.00,Wunderground v.1.13,2013-09-13 21:00:00,
2013-09-13 17:30:00,53.3,48.6,29.80,NW,319,3.0,14.0,84,0.00,,,0.00,Wunderground v.1.13,2013-09-13 21:30:00,
2013-09-13 18:00:00,53.5,48.8,29.81,NW,317,3.0,3.0,84,0.00,,,0.00,Wunderground v.1.13,2013-09-13 22:00:00,
2013-09-13 18:30:00,53.3,48.3,29.81,NW,309,3.0,14.0,83,0.00,,,0.00,Wunderground v.1.13,2013-09-13 22:30:00,
2013-09-13 19:00:00,53.3,47.9,29.82,North,5,4.0,14.0,82,0.00,,,0.00,Wunderground v.1.13,2013-09-13 23:00:00,
2013-09-13 19:30:00,52.9,47.6,29.83,NE,36,4.0,14.0,82,0.00,,,0.00,Wunderground v.1.13,2013-09-13 23:30:00,
2013-09-13 20:00:00,53.1,47.4,29.84,WNW,291,3.0,14.0,81,0.00,,,0.00,Wunderground v.1.13,2013-09-14 00:00:00,
2013-09-13 20:30:00,53.6,46.9,29.85,NNW,333,3.0,3.0,78,0.00,,,0.00,Wunderground v.1.13,2013-09-14 00:30:00,
2013-09-13 21:00:00,53.1,47.1,29.86,North,5,3.0,14.0,80,0.00,,,0.00,Wunderground v.1.13,2013-09-14 01:00:00,
2013-09-13 21:30:00,52.9,47.2,29.87,NNE,22,3.0,3.0,81,0.00,,,0.00,Wunderground v.1.13,2013-09-14 01:30:00,
2013-09-13 22:00:00,52.0,48.3,29.87,NW,325,1.0,14.0,87,0.00,,,0.00,Wunderground v.1.13,2013-09-14 02:00:00,
2013-09-13 22:30:00,52.0,47.3,29.87,NNW,339,2.0,14.0,84,0.00,,,0.00,Wunderground v.1.13,2013-09-14 02:30:00,
2013-09-13 23:00:00,51.4,46.4,29.88,NW,319,2.0,2.0,83,0.00,,,0.00,Wunderground v.1.13,2013-09-14 03:00:00,
2013-09-13 23:30:00,51.4,45.8,29.87,NW,321,3.0,14.0,81,0.00,,,0.00,Wunderground v.1.13,2013-09-14 03:30:00,